Date_and_time,latitude,longitude,wind_speed,RelWindDirFrom,WindDirFrom,air_pressure,air_temperature,relative_humidity,Temp,platform_speed_wrt_ground,air_pressure_at_mean_sea_level,platform_orientation
2019-06-10 23:50,53.3137566666667,-98.996895,25.9,30.2,311,987.72,10.4,86,6.99,11.0,1014.64,160.0
2019-06-11 00:00,53.295575,-99.0380666666667,14.5,23.3,285,987.78,9.9,94,7.72,11.0,1014.77,202.7
2019-06-11 00:10,53.2657733333333,-99.04556,17.6,20.3,205,986.93,10.3,93,8.30,10.8,1013.86,202.7
2019-06-11 00:20,53.2524366666667,-99.0918716666667,11.7,15.1,228,986.64,10.6,88,8.31,11.1,1013.55,202.7
2019-06-11 00:30,53.2399916666667,-99.1383016666667,11.1,14.9,213,985.99,10.3,91,8.66,11.0,1012.91,202.7
2019-06-11 00:40,53.2262116666667,-99.1839616666667,11.9,14.0,208,985.73,10.8,91,10.59,11.0,1012.62,202.7
2019-06-11 00:50,53.213285,-99.23057,12.9,15.4,214,985.58,11.4,89,11.23,11.1,1012.45,202.7
2019-06-11 01:00,53.1925983333333,-99.25451,14.4,17.4,196,985.37,11.8,92,11.47,9.1,1012.23,230.4
2019-06-11 01:10,53.1828216666667,-99.254895,9.1,12.6,179,985.63,11.7,96,13.05,3.5,1012.41,230.4
2019-06-11 01:20,53.1826983333333,-99.2544783333333,5.6,10.4,172,985.74,13.1,90,13.39,0.1,1012.42,230.4
2019-06-11 01:30,53.1827133333333,-99.2544966666667,4.3,8.1,175,985.87,13.2,90,13.44,0.0,1012.51,230.4
2019-06-11 01:40,53.1827216666667,-99.25449,5.5,8.6,177,985.98,12.4,93,13.47,0.0,1012.67,230.4
2019-06-11 01:50,53.182715,-99.2544866666667,3.5,6.7,164,985.94,12.7,92,13.48,0.0,1012.64,230.4
2019-06-11 02:00,53.1827116666667,-99.254485,1.1,3.0,183,986.02,12.6,91,13.56,0.0,1012.70,232.1
2019-06-11 02:10,53.1827133333333,-99.254485,4.5,12.6,357,986.48,12.1,92,13.70,0.0,1013.18,232.1
2019-06-11 02:20,53.1827133333333,-99.2544833333333,1.6,4.0,33,986.54,12.3,89,13.73,0.0,1013.25,232.1
2019-06-11 02:30,53.1827116666667,-99.2544833333333,5.9,10.6,11,986.69,12.2,93,13.74,0.0,1013.38,232.1
2019-06-11 02:40,53.1827116666667,-99.2544833333333,5.1,9.1,39,986.73,11.6,99,13.73,0.0,1013.43,232.1
2019-06-11 02:50,53.18271,-99.2544833333333,3.8,7.5,54,986.79,11.5,99,13.64,0.0,1013.47,232.1
2019-06-11 03:00,53.18271,-99.2544833333333,2.7,4.7,50,986.93,11.3,98,13.68,0.0,1013.63,229.0
2019-06-11 03:10,53.18271,-99.2544816666667,1.3,2.3,127,986.96,11.4,99,13.67,0.0,1013.59,229.0
2019-06-11 03:20,53.1827116666667,-99.2544816666667,0.6,1.7,130,986.91,11.1,99,13.65,0.0,1013.55,229.0
2019-06-11 03:30,53.18271,-99.2544816666667,2.0,2.8,164,986.81,10.7,99,13.74,0.0,1013.50,229.0
2019-06-11 03:40,53.18271,-99.25448,0.6,2.8,127,986.81,10.3,99,13.75,0.0,1013.51,229.0
2019-06-11 03:50,53.18271,-99.25448,2.0,3.4,4,986.83,10.0,99,13.71,0.0,1013.54,229.0
2019-06-11 04:00,53.182705,-99.254515,3.6,4.4,21,986.89,10.3,99,13.71,0.0,1013.62,180.5
2019-06-11 04:10,53.182715,-99.25448,4.4,6.4,5,986.92,10.5,99,13.74,0.0,1013.63,180.5
2019-06-11 04:20,53.1827116666667,-99.2544783333333,7.7,9.4,356,987.07,10.5,99,13.75,0.0,1013.78,180.5
2019-06-11 04:30,53.1827116666667,-99.254475,7.5,9.5,342,987.38,10.0,98,13.76,0.0,1014.15,180.5
2019-06-11 04:40,53.1826733333333,-99.2544716666667,2.4,6.2,319,987.59,9.5,98,13.78,0.0,1014.40,180.5
2019-06-11 04:50,53.1827133333333,-99.2544833333333,2.2,3.6,317,987.66,9.4,98,13.78,0.0,1014.49,180.5
2019-06-11 05:00,53.1827066666667,-99.2544833333333,1.7,2.9,291,987.61,9.2,98,13.75,0.0,1014.45,146.5
2019-06-11 05:10,53.1827066666667,-99.254485,1.5,2.2,342,987.67,9.1,98,13.75,0.0,1014.52,146.5
2019-06-11 05:20,53.1827066666667,-99.2544866666667,2.3,4.3,340,987.90,9.0,99,13.76,0.0,1014.78,146.5
2019-06-11 05:30,53.1827066666667,-99.254485,3.1,5.2,330,987.93,9.0,99,13.78,0.0,1014.84,146.5
2019-06-11 05:40,53.1827083333333,-99.2544833333333,3.1,4.7,342,987.89,9.0,99,13.77,0.0,1014.81,146.5
2019-06-11 05:50,53.1827083333333,-99.2544833333333,3.7,5.2,327,987.89,8.9,99,13.79,0.0,1014.80,146.5
2019-06-11 06:00,53.1827083333333,-99.2544833333333,1.5,3.7,310,988.01,8.5,99,13.80,0.0,1014.93,0.0
2019-06-11 06:10,53.1827083333333,-99.2544816666667,0.9,2.1,270,988.06,8.1,100,13.80,0.0,1014.99,0.0
2019-06-11 06:20,53.1827183333333,-99.2544583333333,1.2,2.6,275,988.10,7.9,100,13.78,0.0,1015.07,0.0
2019-06-11 06:30,53.1827166666667,-99.2544733333333,1.0,2.1,287,988.12,7.9,100,13.76,0.0,1015.12,0.0
2019-06-11 06:40,53.1827133333333,-99.2544766666667,2.6,4.0,286,988.20,8.0,100,13.74,0.0,1015.20,0.0
2019-06-11 06:50,53.1827133333333,-99.254475,3.0,4.5,277,988.25,7.7,100,13.74,0.0,1015.28,0.0
2019-06-11 07:00,53.1827133333333,-99.2544733333333,3.2,5.0,303,988.34,7.7,99,13.74,0.0,1015.37,77.1
2019-06-11 07:10,53.1827133333333,-99.2544733333333,4.0,6.0,314,988.36,7.4,99,13.77,0.0,1015.41,77.1
2019-06-11 07:20,53.182715,-99.254475,4.6,5.9,323,988.39,7.5,99,13.78,0.0,1015.44,77.1
2019-06-11 07:30,53.182715,-99.2544766666667,4.1,5.6,323,988.51,7.6,99,13.76,0.0,1015.55,77.1
2019-06-11 07:40,53.1827133333333,-99.2544766666667,4.1,5.8,334,988.56,7.6,99,13.75,0.0,1015.62,77.1
2019-06-11 07:50,53.1827133333333,-99.2544766666667,4.8,7.1,322,988.61,7.7,99,13.73,0.0,1015.68,77.1
2019-06-11 08:00,53.1827133333333,-99.2544783333333,3.8,6.0,325,988.67,7.8,99,13.72,0.0,1015.76,44.3
2019-06-11 08:10,53.1827133333333,-99.2544766666667,2.4,4.4,307,988.79,7.6,99,13.72,0.0,1015.90,44.3
2019-06-11 08:20,53.1827133333333,-99.2544783333333,3.5,6.4,304,988.88,7.3,99,13.75,0.0,1016.01,44.3
2019-06-11 08:30,53.1827133333333,-99.2544783333333,4.7,7.3,310,988.91,7.2,99,13.76,0.0,1016.04,44.3
2019-06-11 08:40,53.1827133333333,-99.2544783333333,5.3,7.3,316,988.99,7.2,99,13.73,0.0,1016.13,44.3
2019-06-11 08:50,53.1827133333333,-99.2544783333333,5.8,7.7,320,989.10,7.4,99,13.72,0.0,1016.24,44.3
2019-06-11 09:00,53.1827133333333,-99.2544783333333,5.7,7.8,320,989.21,7.6,99,13.70,0.0,1016.36,90.0
2019-06-11 09:10,53.1827116666667,-99.2544783333333,5.2,7.3,310,989.45,7.5,99,13.69,0.0,1016.61,90.0
2019-06-11 09:20,53.1827116666667,-99.2544783333333,4.2,6.9,303,989.57,7.4,99,13.66,0.0,1016.73,90.0
2019-06-11 09:30,53.1827116666667,-99.25448,4.5,6.7,291,989.70,7.0,99,13.65,0.0,1016.88,90.0
2019-06-11 09:40,53.1827116666667,-99.2544783333333,6.3,8.7,300,989.78,7.1,99,13.62,0.0,1016.95,90.0
2019-06-11 09:50,53.1827116666667,-99.2544783333333,6.7,9.7,306,989.88,7.3,99,13.59,0.0,1017.04,90.0
2019-06-11 10:00,53.1827116666667,-99.2544783333333,6.8,9.7,310,990.05,7.6,99,13.60,0.0,1017.21,270.0
2019-06-11 10:10,53.1827116666667,-99.25448,6.1,9.8,310,990.20,7.5,99,13.60,0.0,1017.38,270.0
2019-06-11 10:20,53.1827116666667,-99.25448,7.3,9.6,318,990.33,7.5,97,13.62,0.0,1017.53,270.0
2019-06-11 10:30,53.1827116666667,-99.2544783333333,7.0,8.9,320,990.49,7.4,95,13.61,0.0,1017.69,270.0
2019-06-11 10:40,53.18271,-99.2544783333333,7.3,9.0,325,990.63,7.2,95,13.62,0.0,1017.83,270.0
2019-06-11 10:50,53.18271,-99.2544783333333,6.4,8.6,326,990.77,7.2,94,13.65,0.0,1017.97,270.0
2019-06-11 11:00,53.18271,-99.2544783333333,6.3,8.1,329,990.92,7.2,93,13.64,0.0,1018.13,90.0
2019-06-11 11:10,53.18271,-99.2544783333333,6.9,10.5,338,991.02,7.5,92,13.61,0.0,1018.22,90.0
2019-06-11 11:20,53.18271,-99.2544783333333,8.7,10.9,351,991.03,7.7,89,13.61,0.0,1018.24,90.0
2019-06-11 11:30,53.182715,-99.254475,9.0,11.5,351,991.13,7.7,89,13.61,0.0,1018.34,90.0
2019-06-11 11:40,53.1827416666667,-99.2545533333333,11.0,13.3,359,991.13,7.6,85,13.61,0.0,1018.34,90.0
2019-06-11 11:50,53.18272,-99.2544866666667,11.1,14.4,357,991.28,7.5,83,13.61,0.0,1018.48,90.0
2019-06-11 12:00,53.18271,-99.2544883333333,9.7,15.0,2,991.50,7.7,78,13.60,0.0,1018.70,270.0
2019-06-11 12:10,53.1827083333333,-99.2544783333333,10.2,12.9,5,991.61,7.8,73,13.59,0.0,1018.81,270.0
2019-06-11 12:20,53.182715,-99.2544766666667,9.7,12.7,6,991.78,7.9,71,13.60,0.0,1018.98,270.0
2019-06-11 12:30,53.1827133333333,-99.2544733333333,9.6,13.0,8,991.93,8.0,69,13.59,0.0,1019.14,270.0
2019-06-11 12:40,53.1827083333333,-99.2544766666667,9.5,13.0,2,992.03,8.1,67,13.57,0.0,1019.24,270.0
2019-06-11 12:50,53.1900483333333,-99.2548366666667,12.1,17.5,3,991.93,8.2,67,13.58,2.6,1019.13,270.0
2019-06-11 13:00,53.2078716666667,-99.23954,15.9,19.6,9,991.69,8.2,65,13.62,7.2,1018.87,19.5
2019-06-11 13:10,53.213065,-99.2328366666667,11.4,18.9,3,992.04,8.4,64,12.23,2.4,1019.21,19.5
2019-06-11 13:20,53.2130333333333,-99.2328033333333,10.3,12.3,0,992.22,8.7,61,11.75,0.0,1019.39,19.5
2019-06-11 13:30,53.213025,-99.2329566666667,9.9,11.7,360,992.31,8.9,59,11.67,0.0,1019.47,19.5
2019-06-11 13:40,53.214725,-99.2278716666667,11.2,14.8,8,992.38,9.0,57,11.62,1.3,1019.54,19.5
2019-06-11 13:50,53.21653,-99.21678,12.3,14.6,21,992.53,9.0,57,11.77,2.5,1019.69,19.5
2019-06-11 14:00,53.2184683333333,-99.2051566666667,12.3,13.9,19,992.65,8.9,58,11.83,2.6,1019.81,39.6
2019-06-11 14:10,53.221215,-99.1936583333333,11.4,13.6,18,992.70,8.9,60,11.70,2.7,1019.85,39.6
2019-06-11 14:20,53.2317083333333,-99.1531733333333,15.9,18.3,36,992.18,8.9,58,11.57,9.5,1019.31,39.6
2019-06-11 14:30,53.244205,-99.10697,14.9,17.3,36,992.23,8.8,58,11.03,10.9,1019.37,39.6
2019-06-11 14:40,53.2511166666667,-99.0792166666667,12.6,18.2,45,992.47,8.5,61,9.47,6.5,1019.62,39.6
2019-06-11 14:50,53.25397,-99.0688383333333,10.0,11.3,38,992.77,8.2,63,9.05,2.5,1019.94,39.6
2019-06-11 15:00,53.2565016666667,-99.0573216666667,9.1,10.5,40,992.84,8.1,65,8.95,2.6,1020.01,57.9
2019-06-11 15:10,53.2589883333333,-99.0457916666667,8.5,9.7,40,992.90,8.0,66,8.84,2.6,1020.07,57.9
2019-06-11 15:20,53.2619416666667,-99.0268733333333,9.2,11.9,48,992.88,7.9,67,8.67,4.2,1020.04,57.9
2019-06-11 15:30,53.2620533333333,-99.0245916666667,5.8,9.4,31,993.06,8.0,68,8.48,0.5,1020.21,57.9
2019-06-11 15:40,53.2620366666667,-99.02462,4.4,5.8,26,993.13,8.0,68,8.45,0.0,1020.29,57.9
2019-06-11 15:50,53.2620283333333,-99.02464,4.0,5.4,28,993.11,8.1,66,8.52,0.0,1020.26,57.9
2019-06-11 16:00,53.2620066666667,-99.0245866666667,4.0,5.0,30,993.07,8.2,65,8.65,0.0,1020.22,67.1
2019-06-11 16:10,53.2620733333333,-99.024615,3.1,4.4,43,993.07,8.3,66,8.66,0.0,1020.22,67.1
2019-06-11 16:20,53.2626266666667,-99.0226016666667,3.5,10.4,53,993.03,8.5,65,8.63,0.5,1020.17,67.1
2019-06-11 16:30,53.2546216666667,-98.9735,13.4,14.7,89,992.69,8.4,64,8.46,11.0,1019.84,67.1
2019-06-11 16:40,53.248155,-98.92345,12.2,12.6,91,992.79,8.0,66,7.54,11.0,1019.97,67.1
2019-06-11 16:50,53.2403433333333,-98.8739566666667,12.0,14.3,94,992.83,7.9,65,7.14,11.0,1020.03,67.1
2019-06-11 17:00,53.234695,-98.8238283333333,11.7,13.2,77,992.88,8.2,60,7.02,11.0,1020.07,85.8
2019-06-11 17:10,53.22754,-98.7741533333333,10.0,10.7,85,993.00,8.3,61,6.94,11.0,1020.19,85.8
2019-06-11 17:20,53.22024,-98.724485,8.8,10.2,95,993.06,8.0,64,6.70,11.0,1020.26,85.8
2019-06-11 17:30,53.2129616666667,-98.6758466666667,8.0,11.5,81,993.11,7.9,63,6.61,10.8,1020.32,85.8
2019-06-11 17:40,53.2111666666667,-98.661,1.8,2.8,18,993.23,8.1,65,6.71,3.3,1020.42,85.8
2019-06-11 17:50,53.210245,-98.649575,2.7,3.8,23,993.18,7.9,69,6.77,2.5,1020.38,85.8
2019-06-11 18:00,53.2093316666667,-98.638275,3.7,4.8,36,993.18,7.8,70,6.75,2.5,1020.38,100.5
2019-06-11 18:10,53.20714,-98.627655,3.6,4.6,35,993.24,7.9,65,6.72,2.4,1020.43,100.5
2019-06-11 18:20,53.204435,-98.6165666666667,0.9,3.2,92,993.26,8.3,69,6.69,2.6,1020.44,100.5
2019-06-11 18:30,53.2042316666667,-98.6165966666667,2.3,3.3,269,993.28,8.1,66,6.68,0.1,1020.48,100.5
2019-06-11 18:40,53.2042333333333,-98.6165283333333,1.8,2.4,299,993.32,8.8,57,6.59,0.0,1020.49,100.5
2019-06-11 18:50,53.20461,-98.6184433333333,1.6,5.0,311,993.33,9.4,54,6.56,0.4,1020.47,100.5
2019-06-11 19:00,53.202385,-98.6194666666667,1.6,9.3,247,993.28,9.3,59,6.64,0.8,1020.41,103.7
2019-06-11 19:10,53.18827,-98.5739033333333,9.8,10.2,128,993.12,9.1,61,6.60,11.1,1020.27,103.7
2019-06-11 19:20,53.1749533333333,-98.5277416666667,9.3,9.9,132,993.18,8.7,63,6.61,11.1,1020.36,103.7
2019-06-11 19:30,53.161275,-98.481805,7.9,8.5,144,993.20,8.7,64,6.71,11.1,1020.37,103.7
2019-06-11 19:40,53.14712,-98.4364166666667,7.3,7.8,149,993.18,8.4,70,6.93,11.0,1020.37,103.7
2019-06-11 19:50,53.1330333333333,-98.3908083333333,7.3,8.0,145,993.15,8.3,72,7.09,11.1,1020.35,103.7
2019-06-11 20:00,53.119025,-98.34504,6.8,8.0,137,993.16,8.5,69,7.66,11.1,1020.34,111.8
2019-06-11 20:10,53.1052516666667,-98.29909,7.2,7.9,130,993.16,8.7,67,8.07,11.1,1020.32,111.8
2019-06-11 20:20,53.091475,-98.2534466666667,7.7,9.2,129,993.14,8.7,69,8.01,11.0,1020.30,111.8
2019-06-11 20:30,53.0870583333333,-98.2408166666667,3.1,4.2,229,993.27,9.1,70,7.70,3.2,1020.39,111.8
2019-06-11 20:40,53.08346,-98.2310183333333,3.8,4.3,232,993.26,9.2,72,7.81,2.5,1020.35,111.8
2019-06-11 20:50,53.0803383333333,-98.2208683333333,3.4,4.0,230,993.34,9.2,73,7.92,2.5,1020.43,111.8
2019-06-11 21:00,53.0754633333333,-98.20207,2.2,3.8,191,993.41,9.3,71,7.98,4.4,1020.50,116.9
2019-06-11 21:10,53.075435,-98.1992583333333,3.5,4.7,263,993.42,10.0,60,7.83,0.6,1020.50,116.9
2019-06-11 21:20,53.0754066666667,-98.1987383333333,3.1,4.0,260,993.43,9.8,64,7.95,0.1,1020.52,116.9
2019-06-11 21:30,53.07407,-98.20099,3.3,11.1,252,993.41,9.7,66,7.75,0.7,1020.53,116.9
2019-06-11 21:40,53.0435433333333,-98.208455,10.9,11.8,204,993.11,9.2,69,7.62,11.1,1020.24,116.9
2019-06-11 21:50,53.0129933333333,-98.215335,9.4,9.9,191,993.08,9.2,63,7.60,11.1,1020.19,116.9
2019-06-11 22:00,52.9823966666667,-98.2220283333333,11.0,11.8,207,993.08,9.1,73,7.54,11.1,1020.19,132.5
2019-06-11 22:10,52.95196,-98.2288916666667,12.7,16.0,204,992.97,9.2,61,7.38,11.1,1020.08,132.5
2019-06-11 22:20,52.9216716666667,-98.2368933333333,14.3,16.6,204,992.93,9.4,60,7.42,11.0,1020.01,132.5
2019-06-11 22:30,52.8988216666667,-98.242805,9.7,12.6,195,993.06,9.4,57,7.54,8.3,1020.13,132.5
2019-06-11 22:40,52.89116,-98.246415,5.3,5.9,189,993.23,9.5,63,7.62,2.9,1020.31,132.5
2019-06-11 22:50,52.8838,-98.2477,5.2,5.7,182,993.16,9.6,59,7.58,2.7,1020.22,132.5
2019-06-11 23:00,52.8763866666667,-98.2494583333333,4.2,5.1,174,993.13,9.8,49,7.62,2.7,1020.14,166.6
2019-06-11 23:10,52.8681333333333,-98.2501216666667,4.1,5.9,165,993.05,10.1,42,7.65,3.0,1020.07,166.6
2019-06-11 23:20,52.86695,-98.249705,1.8,3.9,132,993.09,10.2,44,7.84,0.4,1020.11,166.6
2019-06-11 23:30,52.86676,-98.2499866666667,1.5,2.4,133,993.04,10.6,46,8.37,0.1,1020.06,166.6
